[[{"header":{"parameterUnit":"m.s-1","parameterCategory":1,"la1":30.2991,"la2":30.254,"lo1":-89.0895,"lo2":-89.0444,"dy":0.0017,"dx":0.0017,"nx":28,"ny":28,"refTime":"2024-06-07T21:00:00:Z","depth":0,"parameterNumber":2,"parameterNumberName":"U-component_of_WINDS"},"data":[0,0,0,0,0,0,0,0,0,0,0,0,0,0,0,0,0,0,0,0,0,0,0,0,0,0,0,0,0,0,0,0,0,0,0,0,0,0,0,0,0,0,0,0,0,0,0,0,0,0,0,0,0,0,0,0,0,0,-1.5568,-1.5568,0,-1.5517,-1.5516,-1.5516,-1.5467,-1.5466,-1.5465,-1.5465,-1.5413,-1.5413,-1.5412,0,0,0,0,0,0,0,0,0,0,0,0,0,-1.5623,-1.5622,-1.5568,-1.5568,-1.5567,-1.5517,-1.5516,-1.5515,-1.5467,-1.5466,-1.5465,-1.5465,-1.5414,-1.5413,-1.5412,0,0,0,0,0,0,0,0,0,0,0,0,0,-1.5588,-1.5622,-1.5568,-1.5537,-1.5533,-1.5517,-1.5516,-1.5515,-1.5467,-1.5466,-1.5465,-1.5464,-1.5414,-1.5413,-1.5412,-1.5423,0,0,-1.5408,-1.5407,0,0,0,0,0,0,0,0,-1.559,-1.5586,-1.5542,-1.5539,-1.5535,-1.5497,-1.5516,-1.5484,-1.5467,-1.5492,-1.5465,-1.5464,-1.5442,-1.5439,-1.5431,-1.5421,-1.5418,-1.5408,-1.5407,-1.5407,-1.5406,0,0,0,0,0,0,0,-1.5593,-1.5588,-1.5548,-1.5541,-1.5537,-1.5524,-1.5518,-1.551,-1.5473,-1.549,-1.5486,-1.5481,-1.544,-1.5432,-1.5429,-1.5418,-1.5408,-1.5407,-1.5406,-1.5406,-1.5409,-1.541,0,0,0,0,0,0,-1.56,-1.559,-1.555,-1.5546,-1.5561,-1.5524,-1.5517,-1.551,-1.5473,-1.5466,-1.5482,-1.5479,-1.5435,-1.5431,-1.5427,-1.5435,-1.5407,-1.5406,-1.5405,-1.5408,-1.5409,-1.541,0,0,0,0,0,0,-1.5601,-1.5597,-1.5552,-1.5567,-1.556,-1.5524,-1.5516,-1.551,-1.5502,-1.5467,-1.546,-1.5481,-1.5434,-1.5429,-1.5423,-1.5433,-1.5405,-1.5404,-1.5407,-1.5409,-1.541,-1.5453,0,0,0,0,0,0,-1.5603,-1.5597,-1.5602,-1.5568,-1.556,-1.5549,-1.5517,-1.5509,-1.55,-1.5495,-1.5464,-1.5458,-1.5433,-1.5425,-1.5422,-1.5431,-1.5403,-1.5406,-1.5408,-1.5409,-1.5451,-1.5456,-1.546,0,0,0,0,0,-1.5605,-1.5618,-1.5603,-1.5598,-1.5565,-1.555,-1.5545,-1.5516,-1.5501,-1.5504,-1.5481,-1.5459,-1.5432,-1.5425,-1.5421,-1.543,-1.5406,-1.5407,-1.5409,-1.5449,-1.5455,-1.546,0,0,0,0,0,0,-1.5656,-1.5613,-1.5596,-1.5598,-1.5577,-1.5542,-1.5546,-1.5524,-1.5508,-1.5505,-1.547,-1.5463,-1.546,-1.5444,-1.5437,-1.5436,-1.5416,-1.5417,-1.5447,-1.5452,-1.5457,-1.5461,-1.5402,0,0,0,0,0,-1.5667,-1.5658,-1.5621,-1.5626,-1.5617,-1.5583,-1.5576,-1.5554,-1.5532,-1.5524,-1.55,-1.548,-1.5466,-1.5459,-1.5445,-1.5448,-1.5439,-1.5451,-1.5456,-1.546,-1.5461,-1.5458,-1.5462,-1.5416,-1.5416,-1.5416,0,0,-1.569,-1.5666,-1.5663,-1.5636,-1.5618,-1.5608,-1.5576,-1.5569,-1.5562,-1.5523,-1.5515,-1.5497,-1.5471,-1.5469,-1.5467,-1.5456,-1.5472,-1.5462,-1.5466,-1.5465,-1.546,-1.5465,-1.5469,-1.5417,-1.5417,-1.5417,0,0,-1.5728,-1.5709,-1.571,-1.5692,-1.5664,-1.5641,-1.5641,-1.5607,-1.5593,-1.5584,-1.5554,-1.5544,-1.5523,-1.5505,-1.5493,-1.5519,-1.5497,-1.5516,-1.554,-1.5537,-1.5541,-1.5544,-1.5551,-1.5554,-1.5517,-1.5517,-1.5517,0,-1.5761,-1.5746,-1.5713,-1.5706,-1.5694,-1.5657,-1.5656,-1.564,-1.561,-1.5601,-1.5589,-1.5558,-1.5539,-1.553,-1.5536,-1.5529,-1.5526,-1.5519,-1.5543,-1.5546,-1.5548,-1.5554,-1.5557,-1.5519,-1.5519,-1.5519,-1.5519,0,-1.5786,-1.5776,-1.578,-1.5749,-1.5737,-1.5734,-1.5699,-1.5691,-1.567,-1.5647,-1.5637,-1.5612,-1.559,-1.5587,-1.5567,-1.5574,-1.5567,-1.555,-1.5528,-1.5555,-1.556,-1.5562,-1.5523,-1.5522,-1.5521,-1.5521,0,0,-1.5857,-1.5805,-1.5807,-1.5791,-1.5756,-1.5747,-1.574,-1.5718,-1.571,-1.569,-1.5682,-1.5663,-1.5645,-1.5631,-1.5608,-1.5606,-1.5625,-1.5588,-1.5587,-1.5594,-1.5628,-1.5641,-1.5644,-1.561,-1.561,-1.561,-1.5629,0,-1.5887,-1.5873,-1.5841,-1.5836,-1.5825,-1.5787,-1.5781,-1.5758,-1.5736,-1.5722,-1.5698,-1.5684,-1.5662,-1.5653,-1.5649,-1.5624,-1.5631,-1.5622,-1.5601,-1.5601,-1.5607,-1.5647,-1.5662,-1.5681,-1.5631,-1.5632,-1.5632,0,-1.5921,-1.5901,-1.5895,-1.5856,-1.585,-1.5846,-1.582,-1.5809,-1.5781,-1.5764,-1.5747,-1.5721,-1.571,-1.569,-1.5673,-1.5668,-1.5657,-1.5642,-1.5642,-1.5639,-1.5618,-1.5643,-1.5687,-1.5689,-1.5635,-1.5635,-1.5635,0,-1.597,-1.5941,-1.5933,-1.5921,-1.5877,-1.5873,-1.5855,-1.5826,-1.5813,-1.5791,-1.5782,-1.576,-1.5747,-1.573,-1.5698,-1.5687,-1.5683,-1.5662,-1.5668,-1.5669,-1.5669,-1.567,-1.571,-1.5664,-1.5664,-1.5664,-1.5664,0,-1.6007,-1.6004,-1.5954,-1.5949,-1.5943,-1.5906,-1.5901,-1.5879,-1.5853,-1.5841,-1.5808,-1.5798,-1.5756,-1.5741,-1.5716,-1.5704,-1.5699,-1.5684,-1.5678,-1.5687,-1.5688,-1.5679,-1.5676,-1.5665,-1.5665,-1.5665,-1.5665,0,-1.6062,-1.6028,-1.6015,-1.5974,-1.5963,-1.596,-1.5924,-1.5917,-1.5891,-1.5877,-1.5871,-1.5832,-1.5811,-1.5777,-1.5748,-1.573,-1.5723,-1.5712,-1.5732,-1.5728,-1.5735,-1.5734,-1.577,-1.5772,-1.5727,-1.5728,-1.5728,0,-1.6087,-1.6083,-1.604,-1.6029,-1.6012,-1.5996,-1.5982,-1.5944,-1.593,-1.5896,-1.5892,-1.5869,-1.5848,-1.5817,-1.5785,-1.5761,-1.5749,-1.5763,-1.5745,-1.5753,-1.5746,-1.5747,-1.5745,-1.5767,-1.5768,-1.5768,-1.5769,0,-1.6135,-1.6117,-1.6098,-1.6072,-1.6056,-1.6034,-1.6011,-1.6004,-1.596,-1.5947,-1.5925,-1.5908,-1.5876,-1.5853,-1.5824,-1.5804,-1.5778,-1.5774,-1.5774,-1.5783,-1.5794,-1.5786,-1.5742,-1.5774,-1.5773,-1.5773,-1.5773,-1.5772,-1.6174,-1.6167,-1.6135,-1.6114,-1.6091,-1.6069,-1.6059,-1.6031,-1.6012,-1.5982,-1.5961,-1.594,-1.5908,-1.5866,-1.5847,-1.5829,-1.5818,-1.5818,-1.5818,-1.5819,-1.5821,-1.5797,-1.5824,-1.5823,-1.5823,-1.5823,-1.5823,0,-1.6218,-1.6194,-1.6175,-1.6142,-1.6124,-1.6101,-1.6073,-1.606,-1.6041,-1.6014,-1.5993,-1.5966,-1.5942,-1.5907,-1.5879,-1.5872,-1.5859,-1.5866,-1.5865,-1.586,-1.5834,-1.5835,-1.5876,-1.5876,-1.5876,-1.5876,-1.5876,-1.5876,-1.6239,-1.6226,-1.6204,-1.6178,-1.6154,-1.6133,-1.6118,-1.6096,-1.6074,-1.6045,-1.6024,-1.6001,-1.5969,-1.5939,-1.5915,-1.5905,-1.5896,-1.5906,-1.5892,-1.5868,-1.5863,-1.5858,-1.586,-1.5904,-1.5904,-1.592,-1.592,-1.592]},{"header":{"parameterUnit":"m.s-1","parameterCategory":1,"la1":30.2991,"la2":30.254,"lo1":-89.0895,"lo2":-89.0444,"dy":0.0017,"dx":0.0017,"nx":28,"ny":28,"refTime":"2024-06-07T21:00:00:Z","depth":0,"parameterNumber":3,"parameterNumberName":"V-component_of_WINDS"},"data":[0,0,0,0,0,0,0,0,0,0,0,0,0,0,0,0,0,0,0,0,0,0,0,0,0,0,0,0,0,0,0,0,0,0,0,0,0,0,0,0,0,0,0,0,0,0,0,0,0,0,0,0,0,0,0,0,0,0,-2.5272,-2.5272,0,-2.5279,-2.5279,-2.5279,-2.5263,-2.5263,-2.5262,-2.5262,-2.5268,-2.5268,-2.5269,0,0,0,0,0,0,0,0,0,0,0,0,0,-2.5244,-2.5245,-2.5272,-2.5272,-2.5273,-2.5279,-2.5279,-2.5279,-2.5263,-2.5263,-2.5262,-2.5261,-2.5268,-2.5268,-2.5269,0,0,0,0,0,0,0,0,0,0,0,0,0,-2.5254,-2.5245,-2.5272,-2.5265,-2.5265,-2.5279,-2.5279,-2.5279,-2.5263,-2.5263,-2.5262,-2.5261,-2.5267,-2.5268,-2.5269,-2.529,0,0,-2.5272,-2.5273,0,0,0,0,0,0,0,0,-2.5254,-2.5255,-2.5266,-2.5266,-2.5265,-2.5269,-2.5272,-2.5283,-2.5264,-2.5264,-2.5262,-2.5261,-2.5269,-2.527,-2.5273,-2.5291,-2.5291,-2.5272,-2.5273,-2.5273,-2.5274,0,0,0,0,0,0,0,-2.5253,-2.5255,-2.5275,-2.5266,-2.5266,-2.5261,-2.5262,-2.5274,-2.5271,-2.5264,-2.5263,-2.5264,-2.5269,-2.5272,-2.5273,-2.5291,-2.5272,-2.5273,-2.5274,-2.5274,-2.5325,-2.5326,0,0,0,0,0,0,-2.5253,-2.5255,-2.5275,-2.5275,-2.5258,-2.5263,-2.5263,-2.5269,-2.527,-2.527,-2.5264,-2.5263,-2.5271,-2.5272,-2.5273,-2.5296,-2.5273,-2.5274,-2.5275,-2.5325,-2.5326,-2.5326,0,0,0,0,0,0,-2.5253,-2.5255,-2.5275,-2.5265,-2.5267,-2.5264,-2.527,-2.5269,-2.5273,-2.5271,-2.527,-2.5268,-2.527,-2.5271,-2.5286,-2.5296,-2.5275,-2.5275,-2.5324,-2.5325,-2.5326,-2.5345,0,0,0,0,0,0,-2.5252,-2.5255,-2.5264,-2.5265,-2.5267,-2.5288,-2.5271,-2.527,-2.5274,-2.5273,-2.5274,-2.5274,-2.5269,-2.5285,-2.5287,-2.5297,-2.5276,-2.5323,-2.5324,-2.5326,-2.5343,-2.5346,-2.5349,0,0,0,0,0,-2.5251,-2.5269,-2.5264,-2.5267,-2.5278,-2.5289,-2.529,-2.5285,-2.5275,-2.5283,-2.5282,-2.5274,-2.5295,-2.5286,-2.5289,-2.53,-2.5322,-2.5324,-2.5325,-2.5342,-2.5346,-2.5349,0,0,0,0,0,0,-2.5269,-2.5269,-2.5264,-2.5282,-2.5286,-2.5286,-2.5296,-2.5289,-2.5295,-2.5293,-2.5286,-2.5287,-2.5302,-2.5302,-2.5292,-2.5319,-2.5307,-2.5309,-2.5318,-2.5322,-2.5325,-2.5324,-2.5277,0,0,0,0,0,-2.5275,-2.5284,-2.5284,-2.53,-2.5302,-2.5299,-2.5303,-2.5299,-2.5302,-2.5303,-2.5303,-2.5306,-2.5313,-2.5318,-2.5324,-2.5343,-2.5343,-2.5352,-2.5355,-2.5358,-2.5359,-2.5368,-2.5371,-2.5332,-2.5332,-2.5332,0,0,-2.5288,-2.5289,-2.5295,-2.5304,-2.5306,-2.5314,-2.53,-2.531,-2.5316,-2.5305,-2.5318,-2.5318,-2.532,-2.5337,-2.5344,-2.5338,-2.537,-2.536,-2.5362,-2.5362,-2.537,-2.5374,-2.5377,-2.5333,-2.5333,-2.5333,0,0,-2.5315,-2.5318,-2.5331,-2.5333,-2.5336,-2.5333,-2.5337,-2.5338,-2.5337,-2.535,-2.5341,-2.5348,-2.5362,-2.5363,-2.5366,-2.5393,-2.5385,-2.5396,-2.5411,-2.5419,-2.5422,-2.5425,-2.5433,-2.5437,-2.5398,-2.5398,-2.5398,0,-2.533,-2.5344,-2.5338,-2.5349,-2.5352,-2.5342,-2.5355,-2.5357,-2.5362,-2.5364,-2.5358,-2.5373,-2.5374,-2.539,-2.5396,-2.54,-2.5402,-2.5395,-2.5423,-2.5425,-2.5428,-2.5435,-2.5439,-2.5399,-2.5399,-2.5399,-2.5399,0,-2.5361,-2.5371,-2.5381,-2.5386,-2.539,-2.5402,-2.5398,-2.5403,-2.5399,-2.5397,-2.541,-2.5411,-2.5417,-2.5421,-2.5416,-2.5436,-2.5431,-2.5424,-2.5411,-2.5433,-2.544,-2.5443,-2.54,-2.54,-2.54,-2.5399,0,0,-2.54,-2.5401,-2.5404,-2.5406,-2.5408,-2.5415,-2.5426,-2.5432,-2.5436,-2.544,-2.5448,-2.5459,-2.5452,-2.5455,-2.545,-2.5458,-2.5478,-2.5449,-2.5449,-2.5453,-2.5497,-2.5502,-2.5506,-2.5473,-2.5474,-2.5474,-2.5497,0,-2.5425,-2.5444,-2.5439,-2.5457,-2.5464,-2.5455,-2.5464,-2.5466,-2.5465,-2.5471,-2.5469,-2.5476,-2.5467,-2.5468,-2.5476,-2.5474,-2.5486,-2.5472,-2.5479,-2.548,-2.5477,-2.551,-2.5515,-2.5536,-2.5499,-2.55,-2.55,0,-2.5457,-2.5462,-2.5481,-2.548,-2.5484,-2.5492,-2.5496,-2.5503,-2.5505,-2.5503,-2.5506,-2.55,-2.551,-2.5498,-2.5511,-2.5502,-2.5504,-2.5504,-2.5505,-2.5504,-2.549,-2.5508,-2.5543,-2.5545,-2.5505,-2.5505,-2.5504,0,-2.5481,-2.5492,-2.5504,-2.5506,-2.5507,-2.5513,-2.5513,-2.5514,-2.5518,-2.5522,-2.5524,-2.5529,-2.5532,-2.5536,-2.5531,-2.5523,-2.5544,-2.5532,-2.5542,-2.5542,-2.5546,-2.5545,-2.558,-2.555,-2.555,-2.555,-2.555,0,-2.5509,-2.5521,-2.5515,-2.5522,-2.5534,-2.5529,-2.5541,-2.554,-2.5541,-2.5548,-2.554,-2.5547,-2.5541,-2.5547,-2.5543,-2.5554,-2.5555,-2.5554,-2.5552,-2.5553,-2.5553,-2.5554,-2.5552,-2.5551,-2.5551,-2.5551,-2.555,0,-2.5538,-2.5534,-2.5547,-2.5546,-2.5546,-2.5555,-2.5554,-2.5561,-2.5559,-2.5567,-2.5569,-2.5566,-2.5572,-2.5568,-2.5574,-2.5572,-2.5585,-2.5583,-2.5584,-2.5583,-2.5593,-2.5591,-2.5627,-2.5631,-2.5601,-2.5601,-2.5601,0,-2.5555,-2.5563,-2.5564,-2.5567,-2.5568,-2.5575,-2.5578,-2.5573,-2.5576,-2.5579,-2.5585,-2.559,-2.5594,-2.5605,-2.5602,-2.5607,-2.5604,-2.5616,-2.5604,-2.5605,-2.5602,-2.5601,-2.5601,-2.5618,-2.5618,-2.5619,-2.5619,0,-2.5586,-2.5583,-2.5588,-2.5593,-2.5597,-2.56,-2.5602,-2.5606,-2.5601,-2.5605,-2.5611,-2.5614,-2.5621,-2.5626,-2.5629,-2.563,-2.5623,-2.5623,-2.5625,-2.5625,-2.5625,-2.5624,-2.5589,-2.5622,-2.5621,-2.5621,-2.5621,-2.5621,-2.5608,-2.5614,-2.5615,-2.5621,-2.5622,-2.5624,-2.563,-2.5628,-2.5633,-2.5638,-2.5635,-2.5641,-2.5642,-2.5647,-2.5648,-2.5653,-2.5648,-2.5651,-2.5652,-2.5652,-2.5653,-2.5626,-2.5654,-2.5653,-2.5653,-2.5653,-2.5653,0,-2.5637,-2.5637,-2.5642,-2.5645,-2.5649,-2.5643,-2.5646,-2.5649,-2.5655,-2.5657,-2.5661,-2.5667,-2.5672,-2.567,-2.5675,-2.5679,-2.5676,-2.568,-2.5679,-2.5679,-2.5658,-2.5655,-2.5682,-2.5682,-2.5682,-2.5682,-2.5682,-2.5682,-2.5652,-2.5662,-2.566,-2.567,-2.567,-2.5677,-2.5678,-2.568,-2.5681,-2.5688,-2.5692,-2.5691,-2.5691,-2.5695,-2.5699,-2.5699,-2.57,-2.5705,-2.5703,-2.5683,-2.568,-2.5678,-2.5675,-2.5705,-2.5705,-2.5723,-2.5723,-2.5723]}]]